CZ-6A DEB

Satellite information

Favourite Embed

Satellite Type and Status

DEBRISIN ORBIT

Key statistics

Satellite CZ-6A DEB at a glance.

Uptime

1072

Days in orbit

Revolutions

≈ 14.1

Per day

Orbit

SSO

Sun Synchronous Orbit

Inclination

98.8

Latest

Satellite identification and parameters

Extended collection of information and parameters for CZ-6A DEB.

Object identification

Identified? True

Debris? True

Object name: CZ-6A DEB

International designator: 2022-151ACZ

Object number (NORAD): 56281

Object ID (CCSDS): 56281

Country: PEOPLES REPUBLIC OF CHINA (PRC)

Current information (Y/N): Y

RCS size: SMALL

Orbital parameters

Period: 101.886 minutes

Inclination: 98.8209 deg

SMA: 7226.087 km

Apoapsis: 888.839 km

Periapsis: 807.064 km

RAAN: 286.7695 deg

Eccentricy: 0.00565831

Argument of periapsis: 303.1121 deg

Mean anomaly: 56.4628 deg

Mean motion: 14.13344355 rev/day

Mean motion (dot): 0.00003842 rev/day2

B* drag term: 0.002038831 1/REarth

Two-line elements (TLE)

Creation date: Oct. 18, 2025, 2:17 a.m.

Reference frame: TEME

Reference center: EARTH

Epoch: Oct. 17, 2025, 10:31 p.m. UTC

TLE line 0: 0 CZ-6A DEB

TLE line 1: 1 56281U 22151ACZ 25290.93875221 .00003842 00000-0 20388-2 0 9998

TLE line 2: 2 56281 98.8209 286.7695 0056583 303.1121 56.4628 14.13344355132764

Live tracking on map

Real-time ground track for satellite CZ-6A DEB.

In-orbit conjunctions

A list of the most updated potential collisions computed for object CZ-6A DEB.

Target Orbit TCA Probability of collision Miss distance Type
OBJECT A LEO 2025-08-07 06:17:53 0.003458885 299.0 (m) UNKNOWN
COSMOS 1275 DEB LEO 2025-05-16 13:52:33 0.0001595172 247.0 (m) DEBRIS
PSLV R/B SSO 2025-04-16 21:29:52 0.0007128712 21.0 (m) ROCKET BODY

Associated space launch

Chinese satellite reported for atmospheric/ocean/environmental/spatial parameter research purposes, details TBD.

CZ-6A DEB was lifted into orbit during the mission ‘Long March 6A | Yunhai 3’, on board a Long March 6A space rocket.

The launch took place on Nov. 11, 2022, 10:52 p.m. from Launch Complex 9A.

For more information about the launch, click the button.

Launch to space Long March 6A | Yunhai 3
Long March 6A | Yunhai 3

Agency: N/A

Status: Launch Successful

Launch date: Nov. 11, 2022, 10:52 p.m. UTC

Rocket: Long March 6A

Launch pad: Launch Complex 9A

Location: Taiyuan Satellite Launch Center, People's Republic of China

...

Latest news about this satellite

There are no fresh news available about this satellite. Check back as we update our databases every day.


Newsletter sign-up

Weekly statistics, charts and insights to help you stay on top of the space industry.